[[{"header":{"parameterUnit":"m.s-1","parameterCategory":1,"la1":30.2991,"la2":30.254,"lo1":-89.0895,"lo2":-89.0444,"dy":0.0017,"dx":0.0017,"nx":28,"ny":28,"refTime":"2024-05-27T09:00:00:Z","depth":0,"parameterNumber":2,"parameterNumberName":"U-component_of_WINDS"},"data":[0,0,0,0,0,0,0,0,0,0,0,0,0,0,0,0,0,0,0,0,0,0,0,0,0,0,0,0,0,0,0,0,0,0,0,0,0,0,0,0,0,0,0,0,0,0,0,0,0,0,0,0,0,0,0,0,0,0,1.2783,1.2784,0,1.2792,1.2792,1.2792,1.277,1.2769,1.2769,1.2768,1.2778,1.2779,1.278,0,0,0,0,0,0,0,0,0,0,0,0,0,1.275,1.2751,1.2783,1.2784,1.2784,1.2792,1.2792,1.2792,1.277,1.2769,1.2768,1.2768,1.2778,1.2779,1.278,0,0,0,0,0,0,0,0,0,0,0,0,0,1.2762,1.2751,1.2783,1.2774,1.2773,1.2792,1.2792,1.2792,1.277,1.2769,1.2768,1.2767,1.2777,1.2779,1.278,1.2809,0,0,1.2784,1.2785,0,0,0,0,0,0,0,0,1.2762,1.2764,1.2775,1.2774,1.2774,1.2779,1.2784,1.2798,1.277,1.2771,1.2768,1.2767,1.2779,1.278,1.2784,1.281,1.281,1.2784,1.2785,1.2786,1.2786,0,0,0,0,0,0,0,1.2761,1.2763,1.2787,1.2775,1.2774,1.2769,1.277,1.2786,1.2781,1.2771,1.277,1.2771,1.2779,1.2783,1.2784,1.281,1.2784,1.2785,1.2786,1.2787,1.286,1.2861,0,0,0,0,0,0,1.2761,1.2763,1.2786,1.2787,1.2765,1.2771,1.2771,1.2778,1.2781,1.278,1.2772,1.277,1.2781,1.2783,1.2785,1.2819,1.2786,1.2787,1.2788,1.2859,1.286,1.2861,0,0,0,0,0,0,1.276,1.2763,1.2786,1.2774,1.2777,1.2772,1.278,1.2779,1.2783,1.2781,1.278,1.2777,1.278,1.2783,1.2803,1.2819,1.2788,1.2789,1.2857,1.2859,1.2861,1.2887,0,0,0,0,0,0,1.276,1.2763,1.2774,1.2775,1.2778,1.2804,1.2781,1.278,1.2785,1.2783,1.2786,1.2785,1.278,1.2801,1.2804,1.282,1.279,1.2856,1.2858,1.286,1.2885,1.2889,1.2893,0,0,0,0,0,1.2758,1.2781,1.2775,1.2778,1.2791,1.2805,1.2807,1.2799,1.2787,1.2798,1.2796,1.2785,1.2816,1.2803,1.2807,1.2823,1.2855,1.2857,1.286,1.2883,1.2888,1.2893,0,0,0,0,0,0,1.2783,1.2781,1.2774,1.2798,1.2802,1.2801,1.2815,1.2806,1.2814,1.2811,1.2802,1.2803,1.2825,1.2826,1.2812,1.2851,1.2833,1.2837,1.285,1.2855,1.2859,1.2859,1.2791,0,0,0,0,0,1.2791,1.2803,1.2801,1.2822,1.2824,1.2819,1.2825,1.2819,1.2823,1.2825,1.2825,1.283,1.2841,1.2848,1.2858,1.2885,1.2885,1.2898,1.2902,1.2906,1.2909,1.2923,1.2928,1.2869,1.2869,1.2869,0,0,1.2808,1.2809,1.2817,1.2827,1.2829,1.2842,1.2821,1.2835,1.2844,1.2827,1.2846,1.2847,1.2851,1.2875,1.2886,1.2877,1.2925,1.2909,1.2912,1.2913,1.2926,1.2932,1.2937,1.2871,1.2871,1.287,0,0,1.2846,1.2847,1.2865,1.2868,1.2871,1.2868,1.2872,1.2873,1.2873,1.2891,1.2879,1.289,1.2909,1.2913,1.2917,1.2956,1.2946,1.296,1.2982,1.2996,1.3001,1.3005,1.3019,1.3024,1.2963,1.2963,1.2963,0,1.2867,1.2884,1.2875,1.289,1.2895,1.288,1.2898,1.2901,1.2908,1.2912,1.2902,1.2925,1.2927,1.2952,1.2961,1.2965,1.297,1.2959,1.3001,1.3005,1.3009,1.3022,1.3027,1.2964,1.2964,1.2964,1.2964,0,1.291,1.2922,1.2936,1.2942,1.2949,1.2966,1.296,1.2967,1.2961,1.2959,1.2978,1.298,1.299,1.2995,1.2989,1.3019,1.3013,1.3002,1.2984,1.3016,1.3028,1.3033,1.2967,1.2966,1.2966,1.2965,0,0,1.2962,1.2964,1.2969,1.2972,1.2975,1.2984,1.3,1.301,1.3016,1.3022,1.3035,1.3051,1.3041,1.3046,1.304,1.3053,1.3083,1.304,1.304,1.3048,1.3116,1.3124,1.313,1.3077,1.3078,1.3078,1.3115,0,1.2999,1.3026,1.3018,1.3045,1.3056,1.3042,1.3056,1.306,1.3058,1.3068,1.3067,1.3078,1.3064,1.3066,1.3078,1.3077,1.3097,1.3074,1.3089,1.309,1.3088,1.3136,1.3145,1.318,1.312,1.3121,1.3122,0,1.3045,1.3052,1.308,1.3081,1.3085,1.3098,1.3106,1.3115,1.3119,1.3117,1.3123,1.3114,1.313,1.3112,1.3134,1.3119,1.3125,1.3126,1.3127,1.3128,1.3107,1.3138,1.3191,1.3196,1.3129,1.3128,1.3128,0,1.3081,1.3097,1.3115,1.3118,1.312,1.3129,1.313,1.3133,1.3139,1.3146,1.315,1.3159,1.3164,1.3172,1.3166,1.3154,1.3189,1.3171,1.3188,1.3188,1.3196,1.3196,1.325,1.32,1.32,1.32,1.32,0,1.3122,1.314,1.3131,1.3143,1.3162,1.3154,1.3173,1.3173,1.3176,1.3187,1.3176,1.3187,1.3179,1.319,1.3186,1.3205,1.3207,1.3206,1.3205,1.3207,1.3207,1.321,1.3208,1.3202,1.3201,1.3201,1.3201,0,1.3165,1.316,1.3179,1.3179,1.318,1.3194,1.3194,1.3205,1.3203,1.3217,1.322,1.3217,1.3229,1.3224,1.3237,1.3234,1.3258,1.3254,1.3256,1.3255,1.3273,1.3271,1.3331,1.3338,1.3284,1.3285,1.3285,0,1.3192,1.3205,1.3206,1.3213,1.3214,1.3225,1.3231,1.3224,1.3231,1.3236,1.3246,1.3257,1.3265,1.3285,1.3284,1.3293,1.3289,1.3309,1.329,1.3292,1.3289,1.3288,1.3289,1.3313,1.3314,1.3314,1.3315,0,1.3239,1.3236,1.3245,1.3253,1.326,1.3266,1.3271,1.3278,1.327,1.3279,1.329,1.3297,1.3309,1.332,1.3329,1.3331,1.3322,1.3321,1.3325,1.3327,1.3328,1.3327,1.3266,1.3319,1.3319,1.3318,1.3318,1.3318,1.3274,1.3285,1.3288,1.3298,1.3301,1.3306,1.3316,1.3315,1.3324,1.3334,1.3329,1.3343,1.3347,1.3357,1.336,1.3371,1.3363,1.337,1.3371,1.3373,1.3375,1.3327,1.3373,1.3372,1.3372,1.3372,1.3372,0,1.3321,1.3322,1.3332,1.3339,1.3347,1.3337,1.3343,1.335,1.3362,1.3366,1.3374,1.3388,1.3398,1.3398,1.3408,1.3416,1.3413,1.3419,1.3418,1.3419,1.3382,1.3377,1.3422,1.3422,1.3422,1.3422,1.3422,1.3422,1.3346,1.3364,1.3362,1.3381,1.3382,1.3395,1.3399,1.3403,1.3406,1.3422,1.343,1.343,1.3432,1.3442,1.3451,1.3451,1.3455,1.3463,1.3461,1.3427,1.3422,1.3417,1.3412,1.3464,1.3464,1.3498,1.3498,1.3498]},{"header":{"parameterUnit":"m.s-1","parameterCategory":1,"la1":30.2991,"la2":30.254,"lo1":-89.0895,"lo2":-89.0444,"dy":0.0017,"dx":0.0017,"nx":28,"ny":28,"refTime":"2024-05-27T09:00:00:Z","depth":0,"parameterNumber":3,"parameterNumberName":"V-component_of_WINDS"},"data":[0,0,0,0,0,0,0,0,0,0,0,0,0,0,0,0,0,0,0,0,0,0,0,0,0,0,0,0,0,0,0,0,0,0,0,0,0,0,0,0,0,0,0,0,0,0,0,0,0,0,0,0,0,0,0,0,0,0,4.0555,4.0554,0,4.0484,4.0483,4.0482,4.0443,4.0443,4.0443,4.0443,4.0363,4.0361,4.0359,0,0,0,0,0,0,0,0,0,0,0,0,0,4.0651,4.065,4.0555,4.0554,4.0553,4.0484,4.0483,4.0482,4.0443,4.0443,4.0443,4.0443,4.0364,4.0361,4.0359,0,0,0,0,0,0,0,0,0,0,0,0,0,4.0598,4.0649,4.0555,4.0526,4.0522,4.0484,4.0483,4.0482,4.0443,4.0443,4.0443,4.0443,4.0365,4.0362,4.0359,4.0342,0,0,4.0349,4.0348,0,0,0,0,0,0,0,0,4.0601,4.0594,4.0531,4.0528,4.0524,4.0472,4.0488,4.0435,4.0443,4.0473,4.0443,4.0443,4.0399,4.0393,4.038,4.0339,4.0335,4.0349,4.0347,4.0346,4.0345,0,0,0,0,0,0,0,4.0605,4.0597,4.0527,4.053,4.0526,4.0514,4.0506,4.0478,4.0437,4.047,4.0467,4.046,4.0397,4.0383,4.0378,4.0334,4.0349,4.0346,4.0345,4.0343,4.0276,4.0277,0,0,0,0,0,0,4.0614,4.06,4.0529,4.0524,4.0563,4.0513,4.0504,4.0489,4.0438,4.043,4.046,4.0458,4.0388,4.0381,4.0375,4.0353,4.0346,4.0343,4.0341,4.0276,4.0276,4.0277,0,0,0,0,0,0,4.0616,4.0608,4.0532,4.0562,4.0551,4.0511,4.0495,4.0488,4.0473,4.043,4.0422,4.0453,4.0388,4.0379,4.0351,4.035,4.0342,4.0339,4.0276,4.0276,4.0277,4.031,0,0,0,0,0,0,4.0619,4.0609,4.0604,4.0562,4.055,4.0511,4.0494,4.0486,4.0469,4.0466,4.0422,4.0414,4.0387,4.0356,4.0348,4.0346,4.0336,4.0276,4.0276,4.0276,4.0308,4.0311,4.0313,0,0,0,0,0,4.0623,4.0614,4.0604,4.0595,4.0543,4.0511,4.0504,4.0475,4.0469,4.0463,4.0435,4.0415,4.0352,4.0354,4.0345,4.0341,4.0276,4.0276,4.0276,4.0307,4.031,4.0313,0,0,0,0,0,0,4.0654,4.0608,4.0596,4.0574,4.0547,4.0505,4.0496,4.0479,4.0452,4.045,4.0413,4.0403,4.0379,4.0357,4.036,4.0323,4.0312,4.031,4.0338,4.0341,4.0343,4.0349,4.0334,0,0,0,0,0,4.0659,4.0639,4.0599,4.0583,4.0571,4.0536,4.0521,4.0502,4.0471,4.0459,4.0429,4.0399,4.0372,4.0355,4.0328,4.0305,4.0295,4.0298,4.03,4.0302,4.0301,4.0288,4.0289,4.0277,4.0277,4.0277,0,0,4.0667,4.064,4.0629,4.0589,4.0566,4.0545,4.0526,4.0505,4.0489,4.0455,4.0428,4.0405,4.0369,4.0344,4.0331,4.0325,4.0302,4.0302,4.0304,4.0302,4.0288,4.0289,4.029,4.0277,4.0277,4.0277,0,0,4.0672,4.065,4.0635,4.0613,4.058,4.0557,4.0553,4.0514,4.0498,4.0471,4.0446,4.0425,4.0379,4.0355,4.0337,4.0335,4.0316,4.0327,4.0338,4.0326,4.0327,4.0328,4.0327,4.0328,4.0326,4.0326,4.0326,0,4.0687,4.0657,4.0629,4.061,4.0593,4.0564,4.0548,4.0527,4.0486,4.0474,4.0468,4.0411,4.0384,4.0354,4.0354,4.034,4.0334,4.0332,4.0329,4.033,4.033,4.0329,4.0329,4.0328,4.0327,4.0327,4.0327,0,4.0676,4.0655,4.0647,4.0611,4.0593,4.0575,4.0543,4.0528,4.051,4.0488,4.046,4.0428,4.0394,4.0386,4.0367,4.0352,4.035,4.0337,4.0325,4.0333,4.0332,4.0332,4.033,4.0329,4.0329,4.0328,0,0,4.0698,4.0649,4.0646,4.063,4.0591,4.0574,4.0555,4.0524,4.0512,4.0484,4.0467,4.043,4.0419,4.0398,4.0376,4.0366,4.0367,4.0354,4.0352,4.0358,4.035,4.036,4.0361,4.0355,4.0354,4.0354,4.0353,0,4.0698,4.0665,4.064,4.0616,4.0596,4.057,4.0553,4.0527,4.0506,4.0484,4.0459,4.0435,4.0421,4.0409,4.0397,4.037,4.0365,4.0369,4.0337,4.0336,4.0348,4.036,4.037,4.0371,4.0353,4.0352,4.0352,0,4.0694,4.067,4.0645,4.061,4.0601,4.0587,4.0558,4.0538,4.0508,4.0493,4.0471,4.045,4.0427,4.0418,4.0386,4.0389,4.0375,4.0359,4.0358,4.0354,4.0345,4.0356,4.037,4.0371,4.0351,4.0351,4.0351,0,4.0713,4.0675,4.0655,4.0642,4.06,4.0591,4.0573,4.0543,4.0527,4.0501,4.049,4.046,4.0444,4.0421,4.0392,4.0388,4.0363,4.0351,4.0349,4.035,4.0345,4.0346,4.0357,4.0335,4.0335,4.0335,4.0335,0,4.0716,4.0701,4.0664,4.0651,4.0634,4.0605,4.0589,4.0568,4.0542,4.0524,4.0498,4.0482,4.0444,4.0423,4.0399,4.0377,4.0369,4.0356,4.035,4.0358,4.036,4.0348,4.0347,4.0335,4.0335,4.0335,4.0335,0,4.0734,4.0708,4.0685,4.0649,4.064,4.0629,4.0597,4.0584,4.0562,4.054,4.0533,4.0497,4.0471,4.044,4.0402,4.0387,4.0366,4.0357,4.0378,4.0374,4.0374,4.0375,4.0378,4.0378,4.0356,4.0357,4.0357,0,4.0738,4.0727,4.0691,4.0678,4.0662,4.0642,4.0626,4.0597,4.0581,4.0547,4.0538,4.051,4.0487,4.0446,4.0415,4.0387,4.0377,4.038,4.0372,4.0382,4.0378,4.0379,4.0378,4.0382,4.0383,4.0383,4.0383,0,4.0747,4.0736,4.0715,4.0691,4.0674,4.0652,4.063,4.062,4.0586,4.057,4.0544,4.0526,4.049,4.0463,4.0431,4.041,4.0391,4.0386,4.0384,4.0393,4.0406,4.04,4.0384,4.0386,4.0386,4.0386,4.0385,4.0385,4.0759,4.0748,4.0722,4.07,4.0681,4.0661,4.0647,4.0624,4.0603,4.0573,4.0557,4.0532,4.0502,4.0458,4.0438,4.0417,4.041,4.0407,4.0407,4.0406,4.0409,4.041,4.0411,4.0411,4.0411,4.0411,4.0411,0,4.0767,4.075,4.073,4.0701,4.0684,4.067,4.0645,4.0631,4.061,4.0585,4.0564,4.0534,4.0508,4.0477,4.0449,4.0438,4.0428,4.0431,4.0432,4.0428,4.0417,4.0422,4.044,4.044,4.044,4.044,4.044,4.044,4.077,4.0752,4.0737,4.0709,4.069,4.0668,4.0655,4.0636,4.0616,4.0586,4.0565,4.0546,4.0518,4.0488,4.0464,4.0455,4.0446,4.0451,4.044,4.0431,4.0428,4.0426,4.043,4.045,4.045,4.0453,4.0453,4.0453]}]]